Wind_Speed
22 23 23 23 23 23 22 22 20 20 21 22 23 23 23 24 25 24 24 23 23 24 26 28 31 32 30 30 31 32 33 33 33 32 32 32 32 31 28 25 28 32 34 34 34 35 37 39 38 38 40 41 41 41 41 41 42 44 45 46 47 48 48 48 48 47 47 47 48 48 49 48 47 48 48 48 49 50 50 49 49 49 49 50 50
26 27 28 27 26 24 24 23 22 22 22 23 23 24 24 26 27 27 27 26 26 27 28 30 32 33 31 31 32 33 34 34 35 35 35 34 34 35 34 32 34 37 38 38 39 39 40 41 41 42 44 45 44 43 43 42 42 44 46 48 50 51 50 50 49 48 47 46 45 44 45 45 45 47 48 48 49 49 49 49 49 49 49 50 50
28 29 30 29 28 28 28 28 27 26 25 25 25 25 26 27 29 30 30 31 34 35 33 33 34 34 33 33 33 34 34 35 35 36 38 38 38 39 40 40 41 44 46 46 47 46 46 45 44 45 45 44 45 45 47 46 45 46 50 52 52 52 52 52 51 51 50 48 46 45 45 45 45 47 48 48 49 49 49 49 49 50 50 50 51
29 29 29 29 29 30 30 30 30 29 28 28 28 28 29 31 33 35 36 37 39 39 37 36 36 36 35 35 35 35 35 35 35 36 38 40 41 42 42 42 44 46 49 50 51 50 49 48 48 48 49 48 49 50 52 52 51 51 52 53 52 52 53 53 54 54 53 51 50 50 49 49 48 48 48 48 49 50 51 51 51 52 51 51 52
29 29 29 29 29 29 30 30 30 31 31 32 33 34 34 36 37 39 40 41 41 40 39 38 38 37 37 37 37 37 37 37 37 38 40 41 43 44 44 44 45 46 48 49 50 50 50 50 50 52 54 54 54 55 55 54 53 52 52 53 54 54 55 56 56 56 55 55 54 53 52 52 52 52 52 52 52 52 53 53 53 53 54 54 54
31 31 32 32 31 31 31 32 33 34 35 36 36 37 37 37 37 38 39 39 39 40 40 39 39 39 38 38 39 39 40 40 40 41 42 43 44 46 47 48 48 48 49 50 50 50 51 52 53 55 57 58 58 59 58 55 54 54 54 55 55 55 56 57 59 59 58 57 55 54 54 54 54 54 54 54 54 54 54 54 54 55 55 56 56
33 33 34 35 36 36 36 36 37 37 38 38 37 37 36 36 37 37 37 38 38 38 39 39 40 40 40 40 40 41 41 42 43 43 44 45 46 47 48 49 49 50 50 51 52 52 52 53 54 56 58 59 60 60 60 60 59 58 58 58 57 57 57 59 61 61 61 60 59 58 58 58 57 56 56 56 57 57 57 56 57 57 57 57 58
35 36 36 37 39 39 40 40 40 40 41 41 42 42 42 41 42 42 41 41 40 40 41 41 41 42 43 43 42 43 43 44 44 45 46 47 47 48 48 49 50 50 51 52 53 54 54 54 55 56 57 58 59 60 61 63 63 63 62 62 62 62 61 61 63 64 64 64 64 64 63 62 62 62 61 61 61 61 61 61 60 60 61 61 62
39 39 40 40 41 42 43 44 44 44 44 45 46 46 47 46 46 46 45 44 42 43 44 44 44 45 46 46 46 46 46 46 46 46 47 48 49 49 49 50 50 50 51 51 53 54 55 56 56 57 58 59 59 60 61 63 64 65 65 66 66 66 66 66 66 67 68 68 67 68 68 67 67 66 66 66 66 66 66 66 66 65 65 65 66
40 40 41 41 42 43 43 44 44 44 44 44 44 45 46 46 46 46 46 45 44 45 47 47 47 47 48 48 48 48 48 48 48 48 48 49 51 51 52 52 52 52 53 53 54 55 56 57 58 58 59 59 60 60 61 63 64 66 67 67 68 68 68 68 69 70 71 71 70 70 70 70 69 69 69 68 68 69 69 69 69 69 69 69 69
38 40 41 42 42 42 42 42 43 43 43 43 43 44 44 45 45 45 45 45 44 45 47 48 48 48 48 48 47 48 48 48 48 48 49 51 53 55 55 55 55 56 56 56 57 58 59 59 60 60 60 61 61 61 62 63 64 66 67 69 69 69 70 71 72 73 73 74 74 73 73 72 72 72 72 72 72 72 72 72 72 72 73 73 73
40 40 41 42 43 43 43 44 44 45 45 46 46 46 47 47 47 47 46 45 44 44 45 47 47 47 48 47 47 47 48 49 49 49 50 51 54 56 57 58 57 58 58 59 60 61 61 62 63 63 63 63 63 63 63 63 64 65 67 68 70 71 72 73 74 75 75 76 76 77 77 77 77 76 76 76 76 76 77 77 77 77 78 78 78
43 43 44 44 45 46 46 46 47 47 48 48 49 50 50 51 51 51 50 49 47 46 46 47 48 48 49 49 49 50 51 51 51 52 52 53 55 57 59 61 61 60 61 61 62 63 64 65 66 66 66 65 65 65 65 65 66 67 67 69 71 71 72 73 74 75 76 77 78 79 80 80 80 80 80 81 81 81 82 82 82 82 83 83 84
45 45 46 46 47 48 49 49 50 51 52 52 52 53 54 54 55 55 55 54 52 51 51 51 51 52 52 53 53 54 54 54 55 55 56 57 59 61 62 64 64 64 64 64 65 65 67 68 68 68 68 68 68 68 68 68 68 69 70 71 72 73 74 74 75 75 76 77 78 79 80 81 82 82 83 83 84 84 85 85 85 85 86 86 87
47 47 47 47 48 48 49 50 51 53 54 54 54 55 55 56 57 57 57 57 56 55 54 54 55 55 55 56 57 57 58 58 59 59 60 61 62 63 64 65 66 67 67 67 68 69 69 70 70 70 70 70 71 71 71 72 72 73 73 74 74 75 76 76 76 77 77 78 78 79 80 81 82 83 83 84 84 85 86 86 86 86 87 87 88
46 47 47 48 48 48 48 49 50 51 52 53 54 55 55 56 57 58 58 58 58 57 57 57 57 58 58 59 60 60 61 61 62 62 63 63 64 65 66 66 67 67 68 69 70 71 71 72 72 72 72 73 73 74 74 75 75 75 76 76 76 77 77 77 78 78 79 79 79 80 80 81 82 83 83 83 84 85 86 86 86 87 87 88 88
44 45 45 46 47 47 48 48 49 50 51 53 54 55 56 57 57 58 59 60 60 60 60 60 61 61 62 62 63 63 63 63 64 64 64 64 65 66 66 67 67 68 69 70 71 72 72 72 73 74 75 75 76 76 77 77 77 77 77 77 77 77 77 78 78 79 80 80 80 81 81 82 83 83 84 84 85 85 86 86 87 87 87 88 88
43 44 45 46 46 47 48 48 50 51 52 53 54 55 57 58 58 59 61 62 63 63 63 63 63 64 64 64 64 64 64 65 65 65 65 66 66 67 67 68 69 70 71 73 73 74 74 74 74 75 76 77 77 77 77 77 77 77 77 77 77 77 76 77 78 79 80 80 81 81 82 82 83 84 85 85 85 86 86 87 87 87 88 88 88
42 43 44 45 46 47 48 48 50 50 52 53 55 55 57 58 59 60 62 63 64 64 65 65 64 64 65 65 65 65 65 66 66 66 66 67 68 69 70 71 71 73 74 75 76 76 76 75 75 75 75 75 75 75 75 75 75 75 75 76 76 75 75 76 77 79 80 80 81 82 82 83 84 84 85 85 86 86 86 87 87 87 88 88 88
42 43 44 44 45 46 47 48 49 50 51 53 54 55 56 57 59 60 61 63 65 65 66 66 66 65 65 65 65 66 66 67 67 67 68 69 70 71 72 73 74 75 76 77 76 76 75 74 73 73 73 72 72 72 72 72 73 73 74 74 74 74 75 76 77 78 79 80 81 81 82 83 83 84 85 85 85 85 85 85 86 86 86 87 87
44 45 45 45 45 45 46 47 46 46 47 48 48 49 50 51 53 55 58 60 62 64 65 66 66 66 65 65 66 66 67 67 68 68 69 70 71 72 72 73 73 73 74 74 73 72 71 70 69 70 69 69 69 70 70 71 71 72 72 73 73 74 74 75 76 77 78 78 79 80 81 81 82 82 83 83 83 83 83 84 84 84 84 84 84
45 45 45 44 42 39 37 35 34 34 35 36 37 39 41 42 44 46 49 51 52 54 56 58 60 61 62 63 64 65 66 66 67 67 67 68 68 68 68 68 68 68 68 68 68 67 66 66 67 67 67 67 68 68 69 70 70 71 71 72 73 73 73 74 75 75 76 77 77 78 78 79 80 80 80 81 81 81 81 81 81 81 81 80 80
39 38 35 32 29 26 25 26 27 27 27 28 28 30 32 34 36 37 39 40 41 43 45 47 49 52 53 55 57 58 59 59 59 60 60 61 61 61 61 62 62 63 64 64 64 64 64 64 64 65 65 65 66 66 67 68 69 69 70 71 71 72 72 73 73 74 75 75 75 76 76 76 77 77 77 77 77 77 77 77 77 76 76 75 75
28 27 24 22 22 24 26 27 28 28 27 27 26 27 28 29 31 33 34 35 35 36 38 39 41 42 44 46 47 48 49 51 52 53 54 55 56 57 58 59 60 61 62 62 62 61 61 61 61 61 62 62 62 63 64 65 65 66 67 67 68 69 69 70 70 71 71 71 71 72 72 72 72 73 73 73 73 73 73 72 72 71 71 70 69
22 22 23 25 26 28 29 30 29 29 28 28 28 28 28 29 30 31 32 33 33 33 33 35 36 38 39 41 43 44 46 48 49 50 52 52 53 54 55 56 58 59 59 59 58 58 58 57 57 57 58 58 59 59 60 61 62 62 63 64 64 65 65 65 66 66 66 66 67 67 67 67 68 68 68 68 67 67 67 66 66 65 65 64 63
24 25 27 28 29 30 30 32 32 30 29 29 29 29 29 30 30 31 31 32 32 32 32 33 35 37 38 39 41 42 43 45 46 47 48 49 50 51 52 53 53 54 54 54 54 53 53 53 52 53 54 55 55 55 55 56 57 58 58 59 59 60 60 60 60 61 61 61 62 62 62 63 63 63 62 62 61 61 61 61 60 60 60 59 58
29 29 29 28 29 30 30 32 33 32 32 31 31 31 31 31 31 31 31 32 33 33 33 34 35 36 36 37 38 39 40 41 43 44 45 46 47 47 48 48 49 50 50 49 49 49 48 48 48 48 49 50 50 50 50 51 52 52 53 53 54 54 54 55 55 55 56 56 56 56 57 57 57 57 57 56 56 56 55 55 55 54 54 53 52
34 33 31 29 29 29 29 31 33 34 34 33 33 33 32 32 32 31 32 33 34 34 34 35 35 35 35 36 37 39 40 42 42 43 44 44 44 44 44 44 45 46 46 45 45 45 44 44 44 44 44 45 45 45 45 46 47 47 47 48 48 48 49 49 49 50 50 50 50 50 50 51 51 51 51 51 50 50 50 50 49 49 48 47 46
38 37 34 32 31 30 30 31 34 36 36 35 35 36 35 34 32 30 31 33 34 35 35 36 36 36 37 37 38 40 42 42 42 42 42 41 41 41 41 41 42 43 43 43 42 42 41 41 40 40 40 40 40 40 40 41 42 42 42 42 42 43 43 43 44 44 44 45 45 45 45 46 46 46 46 46 46 46 45 45 44 43 42 42 41
43 42 40 39 40 38 35 33 33 34 35 35 36 36 35 35 32 30 31 33 35 36 37 38 38 38 39 39 39 40 41 42 41 41 39 38 38 38 39 39 40 41 41 40 40 39 39 38 37 37 37 37 37 37 36 37 38 37 37 37 37 37 37 37 38 38 39 39 40 40 41 41 42 42 42 42 42 41 41 40 39 39 38 37 36
48 47 45 46 48 47 43 38 33 33 35 36 36 36 35 35 34 32 32 34 37 38 39 39 39 40 39 39 39 39 40 40 40 40 38 37 36 37 37 37 38 38 38 38 38 37 36 35 34 34 34 34 34 33 32 32 32 32 31 31 31 31 32 33 33 34 34 35 36 36 37 37 38 38 38 38 38 37 37 36 35 35 34 33 32
50 50 48 47 49 50 48 43 35 33 36 38 37 37 37 36 36 35 35 36 38 39 39 39 39 39 39 38 38 38 39 40 39 39 37 36 35 36 36 36 36 36 36 35 34 34 33 32 30 29 29 29 30 29 27 26 27 28 28 28 28 28 29 29 30 30 30 31 32 32 33 34 34 35 35 34 34 34 33 32 32 31 30 29 28
52 51 49 47 48 50 50 47 39 35 37 39 39 38 38 38 38 37 37 38 38 38 38 39 39 38 37 37 37 38 39 39 39 38 36 35 35 35 35 35 34 33 32 31 30 30 29 28 27 26 25 25 25 25 24 23 24 25 26 26 26 26 26 26 26 26 26 27 28 29 30 31 31 31 31 31 30 30 30 29 29 27 26 25 23
54 53 52 50 50 49 49 49 47 43 42 42 42 41 40 41 40 40 40 41 40 38 38 39 40 38 37 37 37 38 39 39 39 38 36 35 35 34 34 32 31 29 28 27 26 25 25 25 24 22 21 21 21 22 23 22 22 23 24 24 23 22 22 22 22 22 23 24 25 26 27 28 28 28 27 27 27 27 26 25 24 23 21 20 20
55 55 54 52 52 51 50 49 50 50 48 46 46 46 46 46 45 44 44 44 42 39 39 40 40 37 36 36 37 38 39 39 39 38 36 35 34 33 32 30 28 26 24 23 22 22 22 22 21 19 18 18 19 20 21 21 20 20 20 20 20 19 19 19 19 20 21 22 23 24 25 25 25 25 24 23 23 23 23 22 20 19 18 17 17
53 56 56 54 53 54 52 49 50 52 52 51 51 52 53 52 50 49 49 48 44 41 40 40 38 36 36 37 37 37 38 39 39 38 36 34 33 31 29 27 25 23 21 20 20 19 19 18 17 17 17 17 17 17 17 17 17 17 17 17 17 16 16 16 17 18 20 21 22 22 23 23 23 23 22 21 21 21 20 19 17 15 14 14 13
50 52 55 56 54 54 54 52 52 53 53 53 54 55 55 53 52 51 50 50 46 43 42 40 37 38 39 38 36 35 37 38 38 37 36 34 31 29 27 25 23 20 19 18 17 16 15 15 15 15 15 14 13 13 13 13 15 15 15 15 15 15 15 15 16 18 19 21 22 23 24 24 23 22 20 20 19 19 18 17 14 12 11 11 10
49 50 51 54 55 54 55 56 55 54 54 53 54 55 54 53 52 49 50 52 48 44 42 40 39 40 41 39 35 33 35 37 37 37 35 33 30 27 25 23 20 19 17 15 14 13 13 13 13 12 12 11 11 12 12 13 14 15 15 15 15 15 15 15 16 18 20 22 23 24 25 24 23 21 19 18 18 17 17 15 13 11 10 9 8
48 50 51 53 55 56 56 58 58 56 54 53 53 54 54 54 53 50 50 51 48 43 42 41 42 42 41 38 33 32 35 36 37 37 35 32 29 26 24 21 18 16 14 13 12 13 12 11 10 10 10 11 12 12 13 13 13 13 13 14 14 14 14 15 16 18 20 22 24 25 25 25 24 21 19 17 17 16 15 14 12 10 9 7 6
45 48 49 48 51 55 58 59 59 57 55 54 54 54 54 54 53 50 48 46 44 42 41 42 44 44 40 36 33 33 35 37 37 38 36 32 28 25 23 20 17 15 13 12 12 11 10 9 8 8 9 10 11 12 12 13 12 12 12 12 12 13 14 15 16 18 21 22 23 24 25 25 24 21 18 16 15 15 14 13 11 10 8 6 5
44 46 44 40 40 46 53 58 59 58 56 55 54 53 52 52 52 51 48 44 42 41 41 43 45 45 41 36 35 35 36 37 37 37 37 32 27 24 22 19 17 14 13 12 11 9 8 7 7 8 8 9 9 10 10 11 11 11 11 10 11 11 12 14 16 18 20 21 23 24 25 26 24 21 18 15 14 14 13 12 11 10 9 7 4
44 45 46 44 42 43 47 51 56 58 56 55 54 53 52 51 51 50 49 46 43 42 43 43 45 46 43 38 36 35 36 37 38 37 37 33 27 23 21 18 16 14 12 11 9 7 6 6 7 8 8 8 8 8 8 8 9 10 10 10 11 11 13 14 15 17 19 21 22 24 26 26 25 23 19 15 14 13 13 12 11 10 9 7 4
44 45 47 49 49 49 48 47 49 53 54 54 53 51 50 50 48 48 47 46 45 44 43 43 44 45 45 41 38 36 35 37 38 37 36 34 28 23 21 18 15 13 11 9 7 6 6 6 7 7 7 7 7 7 7 7 8 9 10 11 11 12 13 14 15 17 19 21 23 25 26 27 26 24 20 16 14 14 13 13 11 10 9 6 4
44 45 47 49 50 50 50 49 48 49 51 53 52 50 48 47 46 45 45 45 45 44 43 43 44 45 45 43 40 37 35 35 37 37 36 34 29 24 21 18 14 12 10 8 6 6 6 7 7 7 7 7 6 6 6 6 7 8 9 10 11 12 13 14 16 17 19 21 23 25 27 28 27 25 21 17 15 15 15 13 11 9 8 6 6
44 45 47 50 50 47 47 50 51 49 49 51 51 51 49 46 44 44 45 44 44 44 43 43 44 45 46 45 43 39 36 34 35 36 36 34 30 24 20 17 13 11 9 7 6 6 6 6 7 6 6 6 5 6 6 6 7 7 8 10 11 12 13 14 15 17 19 21 22 24 26 28 27 25 22 18 16 16 15 12 10 10 8 7 8
44 45 47 49 51 50 49 51 52 49 49 51 51 51 50 47 44 43 44 46 46 44 43 43 44 45 46 47 45 42 38 35 34 35 36 34 30 25 19 15 12 10 8 7 5 5 5 5 5 5 5 5 5 5 5 6 7 8 8 9 11 12 13 14 15 17 18 19 21 23 25 26 27 25 23 20 18 16 14 13 11 10 8 8 10
43 44 47 49 50 53 55 56 55 52 52 52 51 51 51 50 46 43 44 46 47 45 44 44 45 46 47 47 47 44 40 37 34 35 35 33 30 25 19 15 13 10 9 7 5 4 4 4 4 4 5 5 5 5 5 6 7 8 8 9 10 12 13 14 15 16 17 19 20 22 24 25 26 26 24 22 18 15 15 14 12 10 8 9 12
41 42 45 48 49 52 56 58 57 55 54 54 52 51 51 50 48 45 44 45 47 46 46 45 46 47 47 47 46 45 42 39 36 35 36 33 30 25 20 16 14 12 10 7 4 3 3 3 4 5 5 6 6 6 5 6 6 8 9 9 9 11 13 15 16 17 17 18 19 21 22 23 25 25 24 22 18 16 16 15 12 9 9 10 14
39 40 42 46 49 51 55 58 58 55 53 52 54 55 53 51 49 47 45 46 47 47 47 47 47 47 48 47 45 44 43 40 37 36 36 33 29 26 21 16 14 14 11 8 5 4 3 4 5 5 6 6 6 5 5 5 6 7 8 9 10 11 12 14 15 16 17 18 19 20 20 21 23 24 23 21 19 17 16 14 11 9 10 12 16
37 38 41 44 47 50 54 59 61 60 54 49 50 53 54 53 51 50 48 47 47 48 48 48 48 47 47 46 45 44 43 40 37 36 36 32 28 25 21 16 14 14 12 9 6 5 5 5 5 5 6 6 6 5 5 5 5 6 7 9 10 11 12 13 15 16 17 18 19 19 19 20 21 22 22 21 19 17 14 13 11 9 11 14 18
35 37 39 42 44 47 52 57 62 65 62 55 49 47 50 53 54 52 51 49 49 50 49 49 49 48 47 47 45 43 42 40 38 36 35 32 27 24 21 17 14 13 12 10 7 6 6 6 6 6 6 5 5 5 5 5 5 6 7 8 9 11 12 13 14 15 16 17 18 18 19 19 19 20 21 20 19 16 13 13 11 10 12 16 19
Wind_Direction
237 248 253 255 260 263 266 271 275 280 285 288 291 293 292 288 282 278 282 287 290 294 297 298 296 298 302 304 301 300 298 294 291 287 283 279 275 269 263 263 266 266 268 270 272 273 276 278 277 276 276 276 276 274 274 275 277 278 277 275 274 274 275 275 275 275 276 276 275 275 276 276 276 276 276 276 276 276 276 277 276 275 274 274 273
239 245 250 253 256 258 262 266 268 270 273 277 282 285 286 283 277 274 278 280 283 288 290 290 290 292 296 297 298 299 297 295 293 290 286 281 278 275 270 266 268 270 270 269 269 268 270 272 274 275 276 277 276 274 275 277 279 279 277 277 277 277 277 276 276 276 276 276 276 275 275 275 275 275 275 275 276 277 277 277 277 275 274 273 273
244 246 249 252 254 258 262 266 268 270 270 272 275 278 277 274 271 272 275 279 283 286 286 286 286 288 291 292 294 296 296 294 294 292 288 284 282 280 278 274 272 273 273 273 272 270 268 268 268 269 270 272 273 273 275 277 278 277 277 277 278 278 277 277 276 276 276 276 275 274 274 274 274 275 275 276 276 277 277 276 275 275 274 273 272
248 250 251 254 258 262 266 268 270 269 268 267 267 269 269 269 270 272 274 278 281 283 283 283 283 285 288 290 292 293 292 291 290 288 287 286 286 285 285 282 279 278 277 277 276 273 270 267 263 263 264 266 268 271 275 277 277 275 275 275 274 274 274 275 275 276 276 276 275 276 275 275 276 276 277 277 277 277 277 276 275 274 273 272 271
252 253 255 259 264 266 267 267 266 266 266 267 268 269 270 271 273 274 276 278 279 280 281 281 280 282 284 286 288 289 289 289 288 286 285 285 285 286 286 286 285 284 282 280 279 276 272 269 265 263 263 265 267 270 275 277 275 272 272 272 272 271 272 273 274 275 276 276 277 277 277 278 278 278 278 278 277 277 276 276 276 274 273 272 272
259 259 260 262 265 265 265 264 265 266 269 270 272 273 273 274 275 277 278 278 279 280 280 279 279 281 282 284 285 286 287 287 286 284 283 283 283 283 283 284 285 285 285 283 281 279 276 272 269 267 266 267 269 272 275 275 273 271 271 271 272 272 273 273 273 274 275 276 276 275 277 278 278 277 276 276 276 275 275 274 274 273 272 272 272
260 262 263 264 264 264 264 264 265 267 268 269 270 271 273 274 276 277 279 280 281 281 281 281 282 283 284 285 285 285 285 285 285 284 282 282 281 281 281 281 282 283 283 283 282 282 280 277 275 272 271 270 271 272 273 273 272 272 271 270 270 271 272 273 273 273 273 274 273 273 274 275 275 274 274 273 273 274 274 274 272 271 271 270 271
254 257 259 261 262 263 264 265 265 266 267 268 270 271 273 275 277 279 280 282 283 282 282 283 284 285 285 286 285 285 285 284 283 283 282 281 280 280 280 280 281 281 281 282 282 281 280 279 278 276 275 274 273 273 273 272 272 271 271 270 269 268 269 270 272 273 273 273 273 273 273 273 273 273 273 272 272 273 274 273 272 271 270 270 270
255 256 257 259 260 261 263 264 266 266 267 269 270 272 274 275 277 279 280 282 283 282 282 283 284 284 285 285 285 285 285 284 283 282 281 280 280 279 279 279 279 280 280 280 281 280 280 279 278 278 277 276 276 275 274 273 273 272 271 270 270 269 268 268 269 271 272 273 273 274 274 274 274 273 273 273 273 273 273 273 273 272 271 270 269
260 260 260 260 261 262 263 265 266 267 268 269 270 271 273 274 275 276 277 279 281 282 283 284 285 286 286 287 287 287 286 285 285 284 283 282 282 281 280 280 279 279 279 279 279 279 279 279 278 278 278 277 277 276 275 275 274 274 273 272 271 270 268 267 267 268 269 270 271 272 273 273 273 273 273 272 272 272 272 272 272 272 272 271 271
258 260 261 261 262 263 263 264 265 266 267 268 270 271 273 274 276 277 278 279 280 283 285 286 287 288 288 288 287 287 286 286 285 285 285 285 284 283 282 282 282 282 281 281 280 280 279 279 279 278 277 277 277 276 276 276 275 275 275 274 273 272 270 269 268 268 268 269 270 271 272 272 272 272 271 271 271 271 271 271 270 270 270 270 270
254 255 257 258 259 260 261 263 265 267 268 269 271 273 275 277 279 280 281 282 283 284 285 286 286 286 287 286 285 284 284 284 285 284 285 285 284 284 285 284 283 283 283 282 281 281 281 280 280 280 280 279 279 278 278 277 277 276 276 276 275 274 273 272 271 270 270 270 271 271 272 272 272 272 272 272 271 271 271 271 270 270 270 270 270
254 255 256 258 260 261 263 264 267 269 271 272 273 275 277 280 281 283 284 285 285 284 284 283 283 283 283 282 282 282 282 282 283 283 283 283 283 284 285 284 284 283 282 281 281 281 281 280 280 280 281 281 281 280 280 279 279 279 278 278 277 277 276 275 274 273 272 272 272 272 272 272 272 272 272 272 272 272 272 272 272 272 272 272 272
259 260 262 263 264 266 267 268 270 273 275 276 277 278 280 282 284 284 285 286 286 285 284 283 282 282 282 281 282 282 282 282 282 282 282 282 282 283 283 283 283 283 282 281 280 280 280 280 280 281 281 281 280 280 280 280 280 279 279 278 278 278 277 277 276 276 275 274 273 273 273 273 273 272 272 272 272 272 272 272 273 273 273 273 273
264 267 268 269 271 272 272 273 275 277 279 280 281 282 284 285 286 286 286 287 286 286 284 283 282 282 282 282 282 282 282 282 282 282 282 282 282 282 282 281 281 281 280 280 279 278 279 279 280 281 281 280 280 280 280 280 280 279 279 278 278 278 278 277 277 277 277 276 275 275 275 274 274 274 274 274 273 273 273 273 273 273 273 273 274
271 272 273 274 276 278 278 279 280 281 282 283 284 285 285 286 286 286 286 286 286 285 284 283 282 282 282 282 282 282 282 282 282 282 282 281 281 281 281 280 280 280 280 279 278 278 278 279 279 280 280 280 280 280 280 280 279 279 278 278 277 277 277 277 277 277 277 277 277 277 276 276 276 276 276 276 276 276 275 275 275 275 275 275 275
276 277 278 278 279 280 281 282 282 283 284 284 284 284 284 284 284 285 285 284 284 283 283 282 282 282 282 282 282 282 282 281 281 281 281 281 281 280 280 280 280 279 279 279 279 279 279 280 280 280 280 280 280 280 280 280 279 279 278 277 277 277 277 277 277 277 277 277 277 277 277 277 277 277 278 278 278 278 278 278 278 277 277 277 277
279 278 278 279 280 280 281 282 282 282 282 282 282 283 283 283 283 283 283 283 283 283 283 282 282 283 283 282 282 282 281 281 280 280 280 280 280 280 279 279 279 279 279 279 279 279 280 280 280 280 280 280 280 280 280 280 279 279 278 278 278 278 277 277 277 277 277 277 278 278 278 278 278 278 278 278 278 278 278 279 279 279 279 279 279
280 279 279 279 280 280 280 280 280 281 281 281 282 283 283 283 283 283 283 283 283 283 283 283 283 282 282 282 282 281 281 281 281 280 280 280 280 280 280 280 280 280 280 280 280 280 280 280 280 280 280 280 280 280 280 279 279 279 279 279 279 278 278 278 278 278 278 278 278 278 279 279 279 279 279 279 279 279 279 280 280 280 280 280 280
281 280 280 280 280 280 281 281 282 283 284 284 285 285 285 285 285 285 284 283 282 282 282 282 282 282 282 282 282 281 281 281 282 282 282 282 282 282 282 282 282 282 282 282 282 282 281 281 281 281 280 280 280 280 280 280 280 279 279 279 279 279 279 279 279 279 279 279 279 280 280 280 280 280 280 280 281 281 281 281 281 281 281 281 281
282 281 280 280 280 282 284 285 287 288 288 288 288 289 289 289 288 288 286 285 284 283 283 282 282 282 282 282 282 282 282 282 283 283 284 284 284 284 284 284 284 283 283 283 283 283 283 282 282 281 280 280 280 280 280 280 280 280 280 280 280 280 280 280 280 280 280 280 280 280 280 281 281 281 281 281 282 282 282 282 282 282 282 282 282
283 282 282 282 284 286 289 292 295 298 297 295 294 294 296 296 295 294 292 291 289 288 286 285 284 284 283 283 283 283 284 284 284 285 285 285 285 285 286 286 286 285 285 285 284 284 284 283 282 281 281 280 280 280 280 280 280 280 280 280 280 281 281 280 281 281 281 281 281 281 281 281 281 282 282 282 283 283 283 283 283 283 283 283 283
289 288 288 289 291 295 300 305 309 311 312 310 307 306 305 304 303 302 300 299 297 296 294 292 290 289 288 288 287 287 287 287 287 287 287 287 287 287 288 288 288 287 287 286 286 285 285 284 283 283 282 282 281 280 280 280 280 280 281 281 281 281 281 281 281 281 281 281 281 281 282 282 282 282 283 283 283 284 284 284 284 284 284 284 284
294 295 296 298 302 306 309 311 312 313 316 319 321 321 320 316 312 309 307 306 304 303 301 299 298 297 296 295 294 293 292 292 291 291 290 290 290 289 289 288 287 287 286 286 286 286 285 285 284 284 283 283 282 282 281 281 281 281 281 282 282 282 282 282 282 282 282 282 282 282 282 283 283 283 283 284 284 284 284 284 284 284 285 285 285
291 294 299 302 306 309 312 314 312 312 314 319 323 326 328 328 324 318 313 310 308 307 307 306 305 303 301 299 298 297 296 295 294 293 292 291 290 289 288 287 285 285 285 285 285 285 285 285 285 285 284 283 283 282 282 282 282 282 282 282 282 282 282 282 282 282 282 283 283 283 283 283 283 284 284 284 284 284 284 285 285 285 285 286 286
284 289 294 300 304 307 311 314 312 310 313 317 322 326 329 330 329 324 318 313 311 310 310 309 307 304 301 299 298 297 297 297 296 295 293 292 291 290 288 287 285 285 284 284 284 284 284 285 284 284 284 283 283 283 282 282 282 281 281 281 281 282 282 282 282 282 283 283 283 284 284 284 284 284 285 285 285 285 285 286 286 286 286 286 286
275 280 285 292 300 303 306 311 312 311 312 316 320 324 327 330 331 328 322 317 314 312 309 307 304 302 301 300 301 303 304 304 302 300 298 296 294 292 290 289 288 287 285 285 285 285 285 285 285 284 284 284 284 284 284 283 282 282 282 282 282 282 282 282 283 283 284 285 285 285 286 286 286 286 286 286 286 286 286 286 286 286 286 286 287
271 271 275 284 293 296 300 306 309 310 312 315 319 324 327 329 332 331 326 321 318 313 309 306 304 304 305 306 308 311 312 311 308 305 303 300 297 295 293 292 291 289 289 289 289 289 288 288 287 287 286 287 287 287 286 285 284 284 284 284 284 284 284 285 285 286 287 287 288 288 288 287 287 287 287 287 287 287 287 287 287 288 288 288 288
276 273 273 280 289 292 294 298 303 307 310 313 318 321 325 327 329 330 329 325 321 316 312 310 309 309 309 310 312 313 314 313 312 309 306 303 299 297 295 294 293 293 293 293 293 293 293 292 292 291 290 290 290 289 289 288 287 287 287 287 287 288 288 288 288 289 289 289 289 289 289 289 289 289 289 289 289 289 289 290 290 290 290 290 289
285 282 279 280 287 289 289 290 296 302 305 309 315 319 321 322 323 325 326 327 325 321 317 313 312 310 310 310 312 313 315 316 315 312 309 306 302 299 298 296 296 295 296 296 296 296 295 295 294 294 294 293 292 291 290 289 289 289 289 290 290 290 290 290 290 291 291 291 291 291 291 291 291 291 291 291 291 292 292 292 292 292 292 292 292
286 287 286 286 289 291 290 287 289 296 299 302 309 314 316 316 317 319 321 324 325 324 320 315 312 310 309 310 312 314 317 319 318 316 312 308 305 302 300 299 298 298 298 298 297 297 296 296 296 296 295 295 294 293 293 292 292 292 292 293 293 294 294 294 295 295 294 294 294 294 294 294 294 294 294 294 295 295 295 295 295 294 294 295 295
282 284 287 289 291 293 293 290 287 288 292 295 300 307 310 310 312 316 319 321 322 323 321 317 314 312 311 312 314 317 320 321 321 319 315 310 307 305 303 302 300 300 299 299 299 298 298 298 298 297 296 295 296 296 296 296 297 299 299 300 300 300 300 299 299 298 298 297 297 297 297 297 297 297 297 298 298 298 297 296 296 296 297 298 298
279 279 281 284 286 288 290 291 288 283 283 287 292 298 303 305 307 311 316 317 319 321 320 319 318 316 315 315 318 321 322 324 323 321 317 313 310 308 306 304 303 302 301 301 300 300 300 300 299 298 298 299 300 301 302 304 305 305 306 305 304 303 303 302 302 302 302 302 302 302 302 302 302 302 302 302 301 300 299 298 298 299 300 301 300
277 277 278 279 280 282 285 286 286 282 279 280 285 290 296 300 300 303 310 314 317 319 319 321 322 320 317 318 320 323 324 325 325 322 318 315 313 311 309 307 306 305 304 304 304 304 303 301 301 303 305 308 310 311 312 312 312 310 308 307 306 306 307 309 310 310 310 310 310 310 310 309 309 308 308 307 305 303 302 302 304 305 306 304 301
274 274 276 276 276 277 281 282 282 281 279 278 280 284 289 293 294 297 303 310 315 317 318 321 323 323 321 321 321 323 325 326 326 323 320 317 315 313 311 310 309 309 308 309 309 307 304 304 307 312 317 319 319 318 317 315 313 310 309 311 314 316 319 321 320 320 319 319 320 319 319 318 316 315 314 313 310 309 309 311 314 314 312 307 303
274 271 272 274 274 274 277 278 277 278 279 278 279 282 286 288 290 293 297 303 309 313 315 319 323 327 327 325 324 324 325 327 328 326 323 320 318 316 315 314 314 313 314 314 312 308 306 311 318 324 326 325 323 320 317 315 313 314 317 321 324 327 330 330 330 330 330 330 329 329 329 327 326 324 322 320 318 318 319 322 324 322 316 310 308
279 273 270 270 271 272 273 273 273 275 276 277 278 281 284 286 287 290 294 298 303 307 310 314 319 326 329 327 324 324 326 329 330 329 326 322 320 319 319 319 319 319 320 317 312 310 316 323 328 329 328 326 324 322 321 321 323 326 328 329 332 337 339 342 343 342 341 340 340 341 341 339 336 334 331 328 327 326 329 332 333 329 322 319 319
281 277 272 267 266 268 270 270 271 273 274 274 276 279 281 282 284 287 291 295 298 301 305 308 312 320 327 328 325 326 328 331 333 332 329 325 322 323 324 324 324 324 322 318 318 323 329 332 330 329 332 333 336 336 337 338 337 335 334 335 342 348 352 355 356 354 352 351 351 351 349 347 345 342 340 337 335 336 338 340 341 339 335 332 330
278 276 274 269 265 264 266 267 269 271 272 272 271 273 276 278 280 285 289 292 294 296 299 303 307 313 322 327 328 328 331 334 336 336 332 328 326 327 327 328 329 328 326 327 331 333 331 330 332 338 346 350 349 346 344 344 341 339 340 346 353 0 5 7 5 3 2 1 359 357 356 354 352 350 347 345 343 343 345 346 346 349 349 345 342
274 271 272 274 270 265 263 264 266 267 268 268 269 270 272 275 279 283 286 289 290 293 295 299 304 309 316 323 326 329 333 336 338 338 335 331 329 330 330 331 331 329 331 336 334 330 329 332 344 357 359 358 353 348 346 343 342 344 348 354 1 11 17 16 11 10 10 7 4 2 1 0 359 357 354 353 351 349 349 350 353 358 3 1 0
272 266 265 268 269 265 262 261 262 263 264 264 266 269 270 273 278 281 283 285 286 288 292 297 302 306 311 318 322 325 331 336 338 339 338 333 331 332 332 331 331 332 334 336 331 329 336 346 1 6 1 355 352 351 349 344 341 345 351 356 5 17 24 22 18 16 13 9 7 6 6 5 6 5 2 2 1 357 354 356 0 5 11 14 20
272 264 258 255 256 257 259 260 260 260 261 262 263 265 267 270 275 278 280 281 283 285 290 295 299 303 307 312 317 320 326 334 338 339 339 336 332 332 331 329 329 332 335 331 329 334 344 357 6 3 353 350 352 353 351 344 340 343 349 355 4 15 24 25 22 18 14 9 8 10 10 9 11 11 8 8 10 6 2 5 7 10 15 20 38
272 263 256 252 250 250 251 254 255 255 256 258 259 261 264 268 271 275 277 279 280 283 288 292 295 300 303 307 312 316 320 328 336 339 339 337 333 331 330 326 326 332 332 327 327 337 348 359 2 354 347 348 349 348 346 342 340 342 346 354 0 9 17 20 19 16 13 10 10 13 13 12 14 16 13 12 15 15 13 12 12 15 20 29 60
272 262 256 251 249 248 247 246 250 253 252 253 255 256 259 263 267 271 274 276 279 281 285 289 291 295 299 303 308 313 316 323 332 338 339 337 334 331 328 324 326 332 330 322 325 338 351 359 357 350 347 345 344 343 341 337 336 338 345 350 355 2 9 12 14 13 12 12 12 14 16 14 15 19 18 15 19 23 19 15 16 22 29 46 78
273 263 256 251 246 246 245 243 245 249 248 248 251 252 253 257 262 266 269 272 276 280 282 284 287 291 295 299 304 309 314 319 328 336 337 336 334 331 326 324 327 330 324 318 327 341 352 357 354 349 346 340 339 341 337 333 332 334 343 347 347 354 360 3 7 9 11 13 13 15 17 16 14 19 22 20 22 26 22 18 26 33 41 63 88
274 264 256 251 245 242 241 238 238 242 245 245 246 247 248 251 254 260 265 268 272 276 278 280 283 286 291 296 300 305 311 316 323 332 335 335 334 330 324 323 325 322 314 313 324 341 352 352 347 341 336 336 338 339 339 338 334 333 338 341 340 345 352 355 360 4 9 12 13 14 17 16 14 18 24 25 24 27 28 27 33 39 49 75 95
275 265 257 252 246 240 237 234 232 236 241 242 242 243 244 246 249 254 260 264 267 271 273 275 279 283 288 292 296 301 308 312 318 328 333 333 332 329 322 320 320 310 302 303 311 330 343 337 330 326 327 335 337 338 342 345 339 333 333 335 336 339 344 348 352 359 5 8 11 12 14 15 15 17 25 28 24 27 34 33 34 44 59 83 101
274 266 258 252 247 241 236 233 231 233 237 239 239 239 240 242 244 248 254 259 262 265 268 271 276 280 284 289 293 298 304 309 315 324 330 330 329 326 320 316 315 306 297 294 294 303 315 310 309 315 325 334 333 334 343 348 341 333 329 330 335 337 340 343 347 354 360 4 8 10 11 14 16 15 23 30 28 28 36 35 34 49 71 93 109
273 265 258 253 248 242 237 232 229 229 233 237 238 237 237 239 241 243 247 253 257 261 265 269 273 277 281 286 291 295 300 306 312 321 327 327 325 324 320 314 313 307 298 292 288 287 291 293 298 309 320 325 324 328 345 351 343 337 332 333 338 341 342 344 346 350 356 1 5 7 9 13 16 15 20 30 32 31 35 38 40 57 82 102 115
275 265 258 253 248 243 237 232 228 227 228 232 237 238 237 236 239 242 244 248 253 257 261 265 269 274 278 283 288 292 296 302 309 317 324 324 322 322 319 312 311 309 302 294 289 289 290 290 295 305 314 317 318 328 350 358 351 344 343 342 345 345 346 347 347 349 355 359 2 4 7 11 16 16 17 27 35 34 36 46 52 68 94 111 120
276 266 259 254 249 244 238 234 230 228 227 228 232 238 238 237 238 240 242 245 249 254 258 262 266 270 274 279 284 288 293 299 305 312 320 321 318 318 316 310 309 310 303 295 291 291 292 292 295 301 306 310 317 331 352 2 359 353 352 353 352 349 348 349 350 351 354 358 360 3 6 8 14 17 16 23 34 37 40 53 63 79 104 117 124
Height
10750 10750 10750 10750 10750 10750 10750 10750 10751 10751 10751 10752 10752 10752 10753 10753 10753 10753 10752 10752 10751 10751 10751 10749 10746 10744 10746 10745 10744 10744 10745 10745 10745 10745 10745 10746 10746 10747 10748 10748 10744 10738 10735 10735 10733 10731 10728 10727 10728 10728 10727 10726 10725 10725 10724 10725 10725 10723 10720 10717 10715 10714 10713 10711 10710 10709 10708 10708 10707 10707 10706 10705 10704 10704 10703 10701 10699 10698 10698 10697 10696 10695 10694 10693 10692
10747 10747 10747 10747 10747 10747 10747 10747 10748 10748 10748 10749 10749 10749 10749 10749 10749 10749 10749 10749 10748 10749 10749 10747 10744 10742 10744 10743 10741 10741 10742 10742 10741 10742 10742 10742 10743 10743 10745 10744 10741 10736 10733 10732 10730 10728 10726 10724 10724 10724 10722 10721 10721 10720 10720 10722 10722 10719 10715 10712 10710 10709 10708 10707 10705 10704 10704 10703 10702 10702 10702 10700 10699 10698 10697 10696 10694 10693 10693 10692 10691 10690 10689 10689 10688
10743 10743 10743 10743 10743 10743 10743 10744 10744 10744 10745 10745 10746 10746 10747 10747 10747 10746 10746 10745 10745 10745 10746 10744 10741 10739 10741 10740 10739 10739 10739 10739 10738 10738 10738 10738 10738 10739 10739 10739 10737 10733 10730 10728 10726 10724 10723 10722 10721 10720 10718 10717 10716 10716 10716 10718 10718 10714 10710 10707 10706 10704 10703 10701 10700 10699 10698 10698 10697 10697 10696 10695 10694 10693 10692 10690 10689 10688 10688 10687 10686 10685 10684 10684 10683
10739 10740 10740 10740 10740 10740 10740 10740 10741 10741 10741 10742 10743 10743 10744 10744 10744 10743 10742 10742 10741 10740 10741 10741 10737 10736 10737 10736 10736 10736 10735 10735 10735 10735 10734 10733 10733 10733 10733 10733 10732 10729 10726 10724 10722 10720 10719 10718 10717 10715 10714 10713 10712 10712 10712 10712 10711 10708 10704 10702 10700 10699 10697 10695 10694 10693 10693 10692 10692 10691 10691 10690 10689 10687 10686 10685 10684 10683 10682 10681 10681 10680 10679 10678 10677
10736 10737 10737 10737 10737 10737 10737 10737 10737 10737 10737 10738 10739 10739 10740 10741 10740 10739 10738 10738 10737 10736 10736 10736 10734 10733 10733 10733 10732 10732 10731 10731 10731 10730 10729 10729 10728 10728 10727 10727 10727 10725 10722 10719 10717 10716 10714 10713 10712 10710 10709 10708 10708 10709 10709 10707 10703 10701 10698 10696 10694 10693 10691 10689 10688 10688 10687 10687 10686 10686 10685 10684 10683 10682 10681 10680 10679 10678 10677 10676 10675 10674 10673 10673 10672
10733 10733 10734 10734 10734 10734 10734 10734 10734 10734 10734 10734 10734 10735 10736 10736 10736 10735 10734 10733 10733 10732 10730 10730 10729 10729 10729 10729 10728 10727 10726 10726 10726 10725 10724 10724 10723 10722 10722 10722 10721 10720 10718 10715 10713 10712 10711 10709 10707 10706 10705 10704 10704 10704 10704 10701 10696 10694 10692 10689 10688 10687 10686 10684 10683 10682 10682 10681 10681 10680 10679 10678 10677 10676 10675 10673 10673 10672 10671 10670 10670 10668 10667 10667 10666
10729 10730 10730 10730 10730 10731 10731 10731 10730 10730 10730 10730 10730 10731 10731 10732 10732 10731 10730 10730 10729 10727 10725 10724 10724 10724 10723 10724 10724 10722 10721 10721 10720 10720 10719 10718 10718 10717 10716 10716 10715 10714 10713 10710 10708 10707 10706 10705 10703 10701 10700 10700 10700 10699 10698 10694 10691 10690 10687 10684 10682 10681 10681 10678 10676 10676 10676 10675 10675 10674 10673 10672 10671 10670 10669 10667 10666 10665 10664 10664 10663 10661 10660 10660 10659
10726 10726 10726 10726 10726 10726 10726 10726 10726 10726 10726 10725 10725 10725 10726 10727 10727 10726 10726 10726 10725 10722 10720 10719 10719 10718 10717 10717 10717 10717 10716 10716 10715 10714 10713 10712 10711 10710 10710 10709 10709 10708 10707 10704 10702 10700 10699 10698 10697 10695 10694 10694 10694 10693 10691 10687 10685 10684 10681 10678 10677 10676 10676 10673 10671 10670 10670 10669 10668 10667 10666 10666 10665 10663 10662 10661 10660 10659 10658 10656 10655 10655 10653 10653 10652
10722 10722 10722 10722 10722 10721 10721 10721 10721 10722 10722 10721 10721 10721 10721 10721 10721 10721 10720 10721 10720 10716 10714 10715 10714 10713 10711 10711 10711 10711 10710 10709 10709 10709 10707 10706 10705 10704 10704 10703 10702 10702 10701 10699 10696 10693 10691 10690 10690 10689 10688 10687 10687 10686 10684 10680 10677 10676 10674 10671 10671 10671 10670 10668 10666 10664 10663 10662 10662 10661 10660 10659 10658 10656 10655 10654 10653 10652 10650 10649 10648 10648 10647 10645 10644
10718 10718 10718 10718 10718 10717 10717 10717 10716 10716 10716 10716 10716 10716 10716 10716 10716 10716 10716 10717 10716 10711 10707 10708 10709 10707 10705 10704 10704 10703 10702 10702 10702 10701 10700 10698 10697 10697 10696 10695 10695 10695 10694 10692 10689 10687 10684 10683 10682 10681 10681 10680 10679 10678 10677 10675 10671 10668 10666 10664 10663 10664 10663 10662 10660 10658 10657 10656 10655 10654 10653 10652 10651 10649 10648 10647 10646 10644 10643 10641 10640 10640 10638 10637 10636
10715 10715 10714 10714 10714 10714 10713 10713 10712 10712 10711 10711 10711 10711 10711 10711 10710 10711 10711 10712 10711 10707 10702 10701 10701 10700 10699 10699 10697 10696 10695 10694 10694 10693 10692 10690 10688 10687 10688 10687 10687 10686 10685 10684 10681 10679 10677 10674 10674 10673 10673 10673 10672 10671 10670 10668 10665 10661 10659 10656 10655 10655 10654 10653 10652 10651 10650 10649 10648 10647 10646 10645 10643 10641 10640 10640 10639 10637 10635 10634 10633 10631 10630 10629 10628
10712 10712 10711 10711 10711 10710 10710 10709 10709 10708 10707 10706 10706 10706 10705 10705 10705 10704 10705 10705 10706 10703 10699 10696 10695 10694 10693 10693 10692 10690 10688 10688 10687 10686 10685 10682 10678 10678 10679 10679 10679 10678 10677 10675 10673 10671 10668 10666 10665 10665 10665 10665 10664 10662 10661 10660 10658 10655 10652 10650 10647 10646 10646 10644 10643 10643 10642 10641 10640 10639 10637 10636 10634 10633 10633 10631 10630 10629 10627 10625 10625 10623 10622 10621 10620
10709 10708 10708 10707 10707 10707 10706 10706 10705 10703 10702 10702 10701 10701 10700 10699 10699 10698 10698 10699 10700 10699 10696 10693 10691 10689 10688 10687 10686 10684 10683 10681 10681 10680 10679 10675 10671 10671 10671 10669 10670 10670 10669 10667 10665 10662 10660 10657 10657 10657 10657 10657 10655 10654 10652 10650 10649 10647 10645 10642 10638 10637 10637 10635 10634 10634 10634 10633 10632 10630 10628 10626 10626 10625 10624 10622 10621 10620 10618 10617 10616 10615 10614 10612 10611
10704 10704 10703 10703 10703 10702 10702 10701 10700 10699 10697 10697 10696 10696 10695 10694 10693 10692 10692 10693 10693 10693 10691 10689 10687 10685 10683 10681 10680 10678 10676 10675 10674 10673 10672 10669 10665 10665 10664 10661 10660 10661 10660 10658 10657 10654 10651 10649 10648 10649 10649 10648 10646 10645 10644 10643 10641 10639 10636 10634 10631 10628 10627 10626 10625 10625 10624 10623 10622 10621 10619 10617 10616 10615 10615 10613 10612 10610 10609 10608 10607 10606 10605 10604 10602
10700 10699 10699 10698 10698 10697 10697 10696 10695 10694 10692 10691 10691 10690 10690 10689 10687 10686 10686 10686 10686 10685 10684 10683 10681 10679 10677 10675 10673 10671 10670 10668 10666 10665 10664 10663 10660 10658 10657 10654 10653 10652 10651 10649 10647 10645 10643 10641 10641 10641 10639 10637 10636 10635 10635 10634 10632 10630 10628 10626 10623 10620 10618 10617 10617 10615 10613 10612 10612 10611 10610 10608 10606 10605 10605 10604 10602 10600 10599 10598 10597 10596 10595 10594 10592
10694 10694 10693 10693 10692 10692 10691 10691 10690 10689 10687 10686 10686 10685 10684 10683 10681 10680 10680 10679 10679 10678 10677 10675 10673 10672 10671 10669 10666 10664 10662 10661 10659 10657 10656 10655 10653 10651 10648 10646 10645 10643 10641 10639 10636 10635 10635 10634 10633 10632 10630 10628 10627 10626 10625 10623 10622 10620 10618 10616 10614 10612 10611 10609 10608 10606 10603 10602 10602 10601 10600 10598 10596 10594 10594 10594 10592 10590 10589 10588 10587 10586 10585 10584 10583
10689 10688 10688 10687 10687 10686 10686 10685 10684 10683 10682 10681 10680 10679 10678 10677 10676 10675 10673 10672 10671 10670 10668 10667 10665 10663 10662 10660 10658 10657 10654 10652 10651 10649 10648 10646 10645 10642 10640 10638 10636 10634 10631 10629 10627 10626 10626 10626 10624 10622 10620 10619 10618 10616 10614 10612 10611 10609 10608 10606 10605 10604 10603 10601 10598 10596 10594 10592 10591 10591 10589 10588 10586 10584 10583 10582 10581 10580 10578 10577 10576 10575 10574 10573 10572
10684 10683 10682 10682 10681 10681 10680 10680 10678 10678 10677 10675 10674 10673 10672 10670 10670 10668 10666 10663 10662 10661 10659 10659 10657 10655 10653 10651 10650 10648 10646 10644 10643 10641 10640 10638 10635 10633 10631 10629 10627 10624 10622 10619 10618 10618 10617 10617 10615 10613 10611 10609 10607 10605 10603 10601 10600 10598 10597 10595 10595 10595 10594 10592 10589 10586 10584 10582 10581 10580 10579 10577 10575 10574 10572 10571 10570 10569 10568 10567 10565 10564 10563 10562 10560
10679 10678 10677 10677 10676 10675 10675 10674 10672 10672 10671 10669 10667 10666 10665 10663 10662 10661 10659 10655 10653 10652 10650 10649 10648 10647 10644 10642 10641 10639 10637 10635 10634 10633 10631 10629 10626 10624 10622 10620 10618 10615 10612 10609 10609 10608 10608 10607 10606 10603 10601 10598 10596 10595 10593 10591 10589 10587 10586 10585 10585 10585 10584 10582 10579 10576 10574 10573 10572 10570 10569 10567 10565 10563 10562 10560 10559 10558 10557 10556 10554 10553 10552 10550 10549
10674 10673 10672 10672 10671 10670 10669 10667 10666 10665 10664 10662 10660 10658 10657 10655 10653 10652 10651 10648 10646 10643 10641 10639 10639 10638 10636 10634 10632 10631 10629 10627 10626 10624 10622 10619 10617 10614 10612 10611 10609 10606 10602 10600 10599 10598 10597 10597 10596 10593 10591 10589 10587 10585 10583 10581 10579 10577 10576 10575 10574 10574 10573 10571 10569 10567 10565 10563 10562 10560 10558 10557 10555 10552 10551 10549 10548 10547 10546 10544 10543 10542 10540 10539 10537
10670 10668 10667 10666 10666 10665 10663 10661 10660 10659 10657 10655 10653 10651 10649 10647 10646 10644 10642 10639 10638 10636 10633 10631 10629 10629 10628 10626 10624 10623 10621 10620 10618 10616 10613 10611 10608 10606 10603 10601 10599 10596 10592 10590 10589 10588 10587 10587 10584 10582 10581 10580 10578 10575 10573 10572 10570 10568 10567 10565 10564 10564 10563 10561 10559 10557 10555 10554 10552 10550 10548 10546 10544 10542 10541 10539 10538 10536 10535 10534 10532 10531 10529 10527 10526
10664 10663 10661 10661 10660 10659 10658 10656 10654 10652 10650 10648 10646 10644 10642 10640 10638 10636 10634 10631 10630 10628 10626 10624 10622 10621 10620 10619 10617 10615 10614 10612 10610 10608 10605 10603 10600 10598 10594 10591 10588 10586 10583 10581 10579 10578 10578 10576 10574 10572 10572 10570 10568 10567 10565 10563 10561 10560 10558 10557 10555 10554 10553 10552 10550 10548 10546 10544 10543 10541 10539 10537 10535 10533 10531 10529 10528 10526 10525 10523 10521 10520 10518 10517 10515
10658 10656 10655 10655 10654 10653 10652 10651 10649 10647 10645 10643 10641 10639 10636 10634 10632 10630 10627 10625 10623 10622 10620 10618 10616 10614 10613 10612 10610 10608 10607 10605 10603 10600 10598 10595 10593 10590 10587 10583 10580 10577 10574 10572 10570 10570 10568 10566 10564 10563 10562 10561 10559 10558 10556 10555 10553 10551 10550 10548 10546 10545 10544 10543 10541 10539 10537 10535 10534 10532 10530 10528 10526 10524 10522 10520 10518 10517 10515 10513 10511 10510 10508 10506 10505
10654 10652 10651 10650 10649 10648 10647 10646 10644 10643 10640 10638 10636 10634 10632 10629 10627 10625 10622 10620 10619 10617 10615 10613 10612 10610 10608 10606 10604 10602 10600 10598 10596 10593 10591 10588 10585 10583 10580 10576 10573 10569 10566 10564 10562 10561 10560 10558 10556 10555 10553 10552 10550 10549 10547 10546 10545 10543 10541 10540 10538 10537 10535 10534 10532 10530 10528 10527 10525 10523 10522 10520 10518 10516 10514 10512 10509 10507 10505 10503 10501 10500 10498 10497 10496
10651 10648 10646 10645 10644 10643 10642 10642 10641 10639 10637 10635 10632 10630 10628 10626 10623 10621 10618 10616 10614 10613 10612 10609 10607 10605 10604 10601 10599 10597 10595 10592 10590 10587 10584 10581 10578 10575 10572 10569 10565 10562 10559 10557 10555 10554 10552 10550 10549 10547 10544 10543 10542 10541 10539 10538 10537 10535 10533 10532 10530 10529 10527 10526 10524 10522 10520 10519 10517 10515 10514 10512 10510 10507 10505 10503 10501 10499 10497 10495 10493 10491 10490 10489 10487
10647 10645 10643 10641 10640 10639 10638 10638 10637 10635 10633 10631 10629 10627 10624 10622 10620 10618 10615 10613 10611 10609 10608 10606 10604 10601 10599 10597 10594 10592 10590 10587 10584 10581 10577 10574 10571 10568 10565 10562 10558 10555 10553 10551 10549 10548 10546 10544 10542 10540 10537 10535 10535 10534 10533 10531 10529 10528 10526 10525 10523 10522 10520 10519 10517 10515 10513 10512 10510 10508 10506 10504 10502 10499 10497 10495 10493 10491 10489 10487 10486 10484 10482 10481 10480
10644 10641 10639 10638 10636 10635 10635 10634 10634 10632 10630 10628 10625 10623 10621 10618 10616 10614 10612 10610 10608 10606 10604 10603 10600 10597 10595 10592 10589 10587 10585 10582 10578 10574 10571 10568 10565 10561 10558 10555 10551 10548 10546 10545 10543 10542 10541 10539 10537 10535 10531 10529 10528 10528 10527 10525 10523 10521 10520 10518 10517 10516 10514 10512 10511 10509 10507 10505 10503 10501 10499 10496 10494 10492 10490 10488 10486 10484 10482 10481 10479 10478 10476 10475 10474
10641 10639 10637 10635 10633 10632 10631 10631 10630 10629 10627 10624 10621 10619 10616 10614 10612 10610 10608 10606 10605 10603 10601 10599 10596 10593 10590 10588 10585 10582 10579 10576 10573 10569 10565 10562 10558 10555 10551 10548 10545 10541 10539 10538 10537 10536 10535 10533 10531 10529 10526 10524 10523 10522 10521 10518 10516 10515 10514 10513 10511 10510 10508 10507 10505 10503 10501 10499 10497 10495 10492 10490 10487 10485 10483 10481 10480 10478 10476 10475 10473 10472 10471 10470 10469
10637 10636 10635 10633 10631 10630 10628 10626 10626 10625 10623 10620 10617 10614 10612 10610 10608 10606 10604 10603 10601 10600 10597 10595 10592 10588 10586 10583 10581 10578 10575 10571 10568 10563 10560 10556 10552 10549 10546 10543 10539 10535 10533 10532 10531 10529 10528 10527 10525 10523 10521 10520 10518 10517 10516 10513 10511 10510 10509 10508 10506 10505 10503 10502 10500 10498 10496 10494 10491 10489 10486 10484 10482 10480 10478 10476 10474 10472 10471 10469 10468 10467 10465 10464 10463
10634 10633 10632 10630 10628 10626 10624 10622 10621 10621 10619 10616 10613 10611 10608 10606 10605 10603 10601 10599 10597 10595 10593 10590 10587 10584 10582 10579 10577 10574 10570 10567 10562 10558 10555 10551 10547 10544 10541 10538 10535 10531 10529 10527 10526 10524 10523 10521 10520 10518 10516 10514 10513 10512 10512 10509 10506 10506 10505 10504 10502 10501 10499 10497 10495 10494 10491 10489 10486 10484 10481 10479 10477 10475 10473 10471 10469 10468 10466 10465 10463 10462 10460 10459 10458
10630 10629 10627 10625 10623 10621 10619 10618 10617 10616 10614 10611 10610 10607 10605 10604 10602 10600 10597 10595 10593 10591 10589 10586 10583 10580 10578 10575 10573 10570 10566 10562 10558 10554 10550 10546 10543 10540 10537 10534 10531 10528 10525 10523 10521 10520 10518 10516 10516 10514 10512 10510 10508 10508 10508 10505 10503 10502 10501 10500 10499 10497 10495 10493 10491 10489 10487 10485 10482 10479 10477 10475 10472 10470 10468 10467 10465 10463 10462 10460 10458 10457 10456 10455 10454
10626 10624 10623 10622 10618 10615 10614 10613 10612 10611 10609 10607 10605 10603 10602 10600 10598 10596 10594 10592 10589 10587 10585 10582 10580 10577 10574 10571 10569 10566 10562 10558 10554 10550 10546 10543 10539 10536 10533 10530 10528 10525 10522 10520 10517 10515 10514 10512 10512 10511 10509 10507 10505 10504 10504 10503 10500 10498 10497 10496 10495 10494 10492 10490 10488 10486 10483 10481 10478 10476 10474 10471 10469 10467 10465 10463 10461 10459 10457 10455 10454 10453 10452 10451 10450
10621 10619 10618 10617 10614 10611 10609 10607 10607 10606 10605 10602 10600 10599 10597 10595 10594 10592 10590 10588 10586 10584 10581 10579 10576 10573 10570 10568 10565 10562 10558 10555 10551 10547 10543 10539 10536 10532 10529 10526 10524 10521 10519 10516 10514 10512 10510 10509 10508 10508 10506 10505 10503 10501 10501 10500 10498 10496 10494 10493 10492 10491 10489 10487 10485 10483 10480 10478 10475 10473 10470 10468 10465 10463 10461 10459 10457 10455 10453 10451 10450 10449 10449 10448 10447
10615 10613 10612 10612 10609 10606 10604 10602 10601 10600 10599 10598 10596 10594 10593 10591 10590 10588 10586 10585 10583 10581 10578 10576 10573 10570 10567 10564 10561 10558 10555 10551 10547 10544 10540 10536 10532 10528 10525 10523 10520 10518 10516 10513 10511 10509 10507 10505 10505 10505 10504 10503 10501 10498 10497 10497 10495 10493 10492 10491 10490 10489 10487 10485 10482 10480 10478 10475 10473 10470 10467 10465 10462 10460 10458 10456 10454 10451 10450 10448 10447 10447 10446 10445 10444
10607 10606 10605 10605 10603 10601 10600 10598 10595 10594 10593 10593 10591 10589 10588 10587 10586 10584 10583 10581 10580 10578 10575 10573 10571 10568 10565 10562 10559 10555 10552 10548 10545 10541 10537 10533 10529 10525 10522 10519 10517 10515 10513 10511 10509 10507 10505 10503 10502 10502 10501 10500 10499 10497 10495 10494 10493 10492 10490 10489 10488 10486 10485 10483 10480 10478 10475 10473 10471 10468 10465 10462 10460 10457 10456 10453 10451 10448 10447 10446 10445 10444 10443 10442 10441
10600 10598 10598 10597 10597 10595 10594 10593 10590 10588 10587 10587 10586 10584 10584 10583 10582 10580 10578 10577 10577 10575 10573 10571 10569 10566 10563 10560 10556 10553 10550 10546 10542 10538 10534 10530 10526 10523 10519 10517 10515 10513 10511 10509 10507 10505 10503 10501 10500 10500 10499 10498 10497 10496 10495 10493 10492 10491 10489 10487 10486 10485 10483 10481 10479 10476 10474 10472 10469 10466 10463 10460 10458 10455 10453 10451 10448 10446 10445 10444 10443 10442 10441 10440 10439
10592 10590 10590 10590 10590 10589 10588 10586 10584 10582 10582 10581 10580 10579 10578 10578 10577 10576 10574 10573 10573 10572 10570 10569 10567 10564 10561 10558 10555 10551 10548 10544 10540 10536 10532 10527 10523 10520 10517 10515 10512 10510 10509 10507 10505 10503 10502 10500 10499 10498 10498 10497 10497 10496 10495 10493 10491 10490 10489 10487 10486 10485 10483 10481 10478 10475 10473 10471 10468 10465 10462 10459 10456 10454 10451 10449 10447 10445 10443 10443 10442 10440 10439 10438 10438
10584 10582 10581 10581 10582 10582 10581 10579 10578 10577 10576 10576 10575 10574 10573 10572 10572 10572 10570 10568 10569 10568 10566 10565 10564 10562 10559 10556 10553 10550 10546 10542 10538 10534 10530 10526 10521 10518 10515 10513 10511 10509 10507 10506 10504 10502 10500 10499 10499 10498 10497 10496 10496 10495 10494 10492 10491 10489 10488 10487 10486 10484 10482 10480 10478 10475 10473 10470 10467 10465 10461 10458 10455 10453 10451 10448 10446 10444 10443 10441 10440 10439 10439 10438 10437
10575 10574 10573 10572 10573 10575 10574 10572 10571 10571 10570 10569 10569 10568 10567 10567 10567 10568 10566 10564 10564 10564 10563 10562 10560 10559 10557 10554 10551 10548 10544 10540 10536 10532 10528 10524 10520 10516 10514 10512 10510 10508 10507 10505 10503 10501 10500 10499 10498 10497 10496 10495 10494 10494 10493 10492 10491 10490 10488 10487 10486 10484 10482 10480 10478 10476 10473 10470 10468 10465 10462 10459 10456 10453 10450 10448 10445 10444 10442 10441 10440 10439 10438 10438 10437
10566 10565 10566 10566 10565 10565 10565 10564 10563 10564 10563 10562 10562 10562 10562 10560 10561 10562 10561 10560 10560 10560 10559 10558 10557 10556 10555 10553 10549 10546 10543 10539 10535 10530 10526 10522 10519 10515 10513 10511 10509 10508 10506 10504 10502 10501 10500 10499 10498 10497 10496 10495 10494 10493 10492 10491 10491 10490 10489 10487 10486 10485 10483 10480 10478 10476 10474 10471 10469 10466 10462 10459 10456 10453 10450 10448 10445 10444 10442 10441 10440 10439 10438 10437 10437
10556 10555 10559 10559 10556 10555 10555 10555 10555 10555 10555 10555 10555 10556 10556 10555 10555 10556 10556 10555 10555 10555 10554 10554 10553 10552 10552 10550 10547 10544 10541 10537 10533 10529 10525 10521 10518 10515 10512 10510 10509 10507 10505 10504 10502 10501 10500 10499 10497 10497 10496 10496 10495 10494 10493 10491 10490 10490 10489 10488 10486 10485 10483 10481 10479 10477 10474 10472 10470 10466 10463 10460 10456 10453 10450 10448 10446 10444 10442 10441 10440 10439 10438 10437 10437
10545 10544 10545 10546 10545 10544 10545 10546 10546 10546 10547 10548 10548 10549 10549 10550 10550 10550 10550 10550 10550 10550 10550 10549 10549 10548 10547 10547 10545 10542 10540 10536 10532 10528 10524 10521 10517 10515 10512 10510 10508 10506 10505 10503 10502 10501 10500 10499 10497 10496 10496 10495 10495 10494 10493 10492 10491 10489 10488 10487 10486 10485 10483 10481 10479 10478 10476 10473 10470 10467 10463 10460 10457 10454 10451 10448 10446 10444 10443 10441 10440 10439 10438 10437 10437
10533 10532 10532 10532 10533 10534 10535 10535 10535 10536 10539 10540 10541 10542 10543 10544 10544 10544 10544 10545 10545 10545 10545 10545 10544 10544 10543 10543 10542 10541 10538 10535 10531 10527 10523 10520 10517 10514 10512 10510 10508 10506 10505 10503 10502 10501 10500 10499 10497 10497 10496 10495 10495 10494 10493 10492 10491 10489 10488 10487 10485 10484 10483 10481 10480 10478 10476 10474 10471 10467 10463 10460 10458 10455 10452 10449 10447 10445 10443 10442 10441 10439 10438 10438 10437
10521 10521 10520 10521 10523 10524 10525 10525 10525 10527 10531 10532 10534 10536 10537 10538 10539 10539 10539 10539 10539 10540 10540 10540 10540 10539 10539 10539 10539 10538 10536 10534 10530 10526 10523 10519 10516 10514 10511 10509 10507 10505 10504 10503 10502 10500 10499 10498 10497 10497 10496 10495 10495 10494 10493 10492 10491 10490 10488 10487 10485 10484 10483 10481 10480 10478 10476 10474 10471 10468 10464 10461 10458 10456 10453 10450 10447 10446 10444 10443 10441 10440 10439 10439 10438
10508 10509 10508 10510 10513 10515 10516 10517 10516 10518 10521 10524 10526 10529 10531 10532 10533 10533 10533 10533 10533 10534 10535 10535 10535 10535 10535 10535 10535 10535 10534 10532 10529 10526 10522 10519 10516 10513 10511 10508 10506 10505 10504 10503 10501 10500 10499 10498 10497 10497 10496 10495 10495 10494 10493 10492 10491 10490 10489 10487 10486 10485 10483 10482 10480 10479 10477 10474 10472 10469 10466 10462 10459 10457 10454 10451 10448 10447 10445 10444 10442 10441 10440 10440 10440
10495 10496 10497 10499 10502 10504 10505 10506 10508 10509 10511 10515 10518 10521 10523 10525 10526 10527 10528 10528 10528 10529 10530 10530 10530 10530 10530 10531 10531 10531 10531 10530 10528 10525 10521 10518 10516 10513 10511 10509 10507 10505 10504 10503 10501 10500 10499 10499 10498 10497 10497 10496 10495 10494 10493 10492 10491 10490 10489 10488 10486 10485 10483 10482 10481 10479 10477 10475 10472 10470 10467 10464 10461 10458 10455 10452 10449 10448 10447 10445 10443 10442 10442 10442 10442
10483 10484 10485 10487 10491 10493 10494 10496 10499 10501 10502 10505 10510 10513 10515 10517 10520 10521 10522 10522 10523 10524 10525 10525 10525 10525 10526 10526 10527 10527 10528 10527 10525 10523 10520 10517 10515 10513 10511 10509 10507 10505 10504 10503 10501 10500 10500 10499 10498 10498 10497 10496 10495 10494 10493 10492 10491 10490 10489 10488 10487 10485 10483 10482 10481 10479 10477 10475 10473 10470 10468 10465 10462 10459 10457 10454 10451 10449 10448 10446 10445 10444 10444 10444 10444
10471 10472 10474 10476 10479 10482 10484 10488 10492 10493 10493 10497 10502 10505 10507 10510 10512 10515 10516 10516 10517 10518 10519 10520 10521 10521 10521 10522 10523 10523 10524 10524 10523 10521 10519 10516 10514 10512 10510 10508 10507 10505 10504 10502 10501 10500 10499 10499 10498 10497 10496 10495 10494 10493 10493 10492 10491 10490 10489 10488 10487 10486 10484 10482 10480 10479 10477 10476 10474 10471 10469 10466 10463 10460 10458 10456 10453 10450 10449 10448 10447 10446 10446 10446 10446
10461 10462 10463 10465 10468 10472 10475 10479 10482 10484 10486 10489 10493 10496 10500 10503 10505 10507 10509 10510 10511 10512 10514 10515 10515 10516 10517 10518 10519 10520 10520 10521 10520 10519 10517 10515 10513 10511 10509 10508 10506 10505 10503 10502 10501 10500 10499 10498 10498 10497 10496 10495 10494 10493 10493 10492 10491 10490 10489 10488 10487 10486 10484 10482 10480 10479 10477 10476 10474 10472 10470 10467 10465 10462 10459 10457 10455 10452 10451 10450 10449 10448 10449 10449 10449
10453 10453 10453 10455 10458 10462 10465 10469 10472 10474 10478 10481 10484 10488 10493 10497 10498 10500 10503 10504 10505 10507 10508 10509 10510 10511 10512 10514 10515 10516 10517 10517 10517 10516 10515 10513 10511 10510 10508 10506 10505 10504 10503 10502 10500 10499 10498 10498 10497 10496 10495 10494 10494 10493 10493 10492 10491 10490 10489 10488 10486 10485 10484 10482 10480 10479 10477 10476 10474 10472 10471 10468 10466 10463 10461 10459 10456 10454 10453 10452 10451 10451 10451 10452 10452
10445 10444 10444 10446 10449 10453 10456 10460 10462 10465 10468 10472 10476 10480 10485 10490 10492 10494 10495 10497 10499 10501 10503 10504 10505 10507 10508 10509 10511 10512 10513 10514 10514 10514 10513 10511 10510 10509 10507 10505 10504 10503 10502 10501 10500 10499 10498 10497 10497 10496 10495 10494 10493 10492 10492 10492 10491 10490 10489 10488 10486 10485 10483 10482 10480 10479 10477 10476 10475 10473 10471 10469 10467 10465 10462 10460 10458 10456 10455 10454 10453 10453 10454 10455 10455